Time,TemperatureF,DewpointF,PressureIn,WindDirection,WindDirectionDegrees,WindSpeedMPH,WindSpeedGustMPH,Humidity,HourlyPrecipIn,Conditions,Clouds,dailyrainin,SoftwareType,DateUTC
2013-09-11 00:24:00,81.0,75.0,-100.00,South,190,5.0,7.0,82,-99.99,,,-99.99,,2013-09-11 04:24:00,
2013-09-11 00:54:00,81.0,76.0,-100.00,NNE,20,6.0,9.0,85,-99.99,,,-99.99,,2013-09-11 04:54:00,
2013-09-11 01:23:00,77.0,73.0,-100.00,NNE,15,4.0,11.0,87,-99.99,,,-99.99,,2013-09-11 05:23:00,
2013-09-11 01:53:00,76.0,73.0,-100.00,North,5,5.0,10.0,87,-99.99,,,-99.99,,2013-09-11 05:53:00,
2013-09-11 02:22:00,76.0,72.0,-100.00,North,10,4.0,7.0,88,-99.99,,,-99.99,,2013-09-11 06:22:00,
2013-09-11 02:52:00,75.0,72.0,-100.00,North,5,2.0,5.0,90,-99.99,,,-99.99,,2013-09-11 06:52:00,
2013-09-11 03:23:00,74.0,72.0,-100.00,North,5,3.0,6.0,92,-99.99,,,-99.99,,2013-09-11 07:23:00,
2013-09-11 03:32:00,74.0,72.0,-100.00,North,5,3.0,6.0,92,-99.99,,,-99.99,,2013-09-11 07:32:00,
2013-09-11 03:52:00,74.0,72.0,-100.00,North,5,2.0,8.0,93,-99.99,,,-99.99,,2013-09-11 07:52:00,
2013-09-11 04:22:00,73.0,71.0,-100.00,North,5,4.0,8.0,93,-99.99,,,-99.99,,2013-09-11 08:22:00,
2013-09-11 04:52:00,74.0,72.0,-100.00,North,10,3.0,8.0,93,-99.99,,,-99.99,,2013-09-11 08:52:00,
2013-09-11 05:21:00,74.0,72.0,-100.00,North,5,3.0,7.0,93,-99.99,,,-99.99,,2013-09-11 09:21:00,
2013-09-11 05:43:00,74.0,72.0,-100.00,North,5,2.0,7.0,93,-99.99,,,-99.99,,2013-09-11 09:43:00,
2013-09-11 05:53:00,74.0,72.0,-100.00,South,185,4.0,7.0,93,-99.99,,,-99.99,,2013-09-11 09:53:00,
2013-09-11 06:23:00,74.0,72.0,-100.00,North,5,4.0,6.0,93,-99.99,,,-99.99,,2013-09-11 10:23:00,
2013-09-11 06:53:00,74.0,72.0,-100.00,NNE,15,5.0,9.0,93,-99.99,,,-99.99,,2013-09-11 10:53:00,
2013-09-11 07:21:00,74.0,72.0,-100.00,North,5,2.0,7.0,93,-99.99,,,-99.99,,2013-09-11 11:21:00,
2013-09-11 07:52:00,74.0,72.0,-100.00,North,10,3.0,7.0,93,-99.99,,,-99.99,,2013-09-11 11:52:00,
2013-09-11 08:21:00,74.0,72.0,-100.00,North,5,2.0,7.0,93,-99.99,,,-99.99,,2013-09-11 12:21:00,
2013-09-11 08:52:00,75.0,73.0,-100.00,North,5,3.0,8.0,92,-99.99,,,-99.99,,2013-09-11 12:52:00,
2013-09-11 09:22:00,77.0,73.0,-100.00,North,10,4.0,8.0,88,-99.99,,,-99.99,,2013-09-11 13:22:00,
2013-09-11 09:52:00,78.0,73.0,-100.00,North,5,3.0,11.0,85,-99.99,,,-99.99,,2013-09-11 13:52:00,
2013-09-11 10:22:00,80.0,74.0,-100.00,NNE,15,7.0,12.0,80,-99.99,,,-99.99,,2013-09-11 14:22:00,
2013-09-11 10:52:00,81.0,74.0,-100.00,NE,35,6.0,11.0,78,-99.99,,,-99.99,,2013-09-11 14:52:00,
2013-09-11 11:22:00,84.0,74.0,-100.00,North,5,6.0,11.0,72,-99.99,,,-99.99,,2013-09-11 15:22:00,
2013-09-11 11:54:00,86.0,73.0,-100.00,North,5,6.0,10.0,65,-99.99,,,-99.99,,2013-09-11 15:54:00,
2013-09-11 12:23:00,89.0,72.0,-100.00,North,10,7.0,12.0,58,-99.99,,,-99.99,,2013-09-11 16:23:00,
2013-09-11 13:52:00,95.0,69.0,-100.00,WNW,285,7.0,15.0,43,-99.99,,,-99.99,,2013-09-11 17:52:00,
2013-09-11 14:12:00,96.0,69.0,-100.00,North,5,7.0,12.0,42,-99.99,,,-99.99,,2013-09-11 18:12:00,
2013-09-11 14:22:00,95.0,68.0,-100.00,North,5,6.0,16.0,41,-99.99,,,-99.99,,2013-09-11 18:22:00,
2013-09-11 14:52:00,96.0,67.0,-100.00,North,5,7.0,14.0,38,-99.99,,,-99.99,,2013-09-11 18:52:00,
2013-09-11 15:12:00,97.0,67.0,-100.00,North,10,9.0,16.0,37,-99.99,,,-99.99,,2013-09-11 19:12:00,
2013-09-11 15:22:00,98.0,65.0,-100.00,North,5,7.0,15.0,34,-99.99,,,-99.99,,2013-09-11 19:22:00,
2013-09-11 15:53:00,97.0,65.0,-100.00,SSW,195,4.0,12.0,35,-99.99,,,-99.99,,2013-09-11 19:53:00,
2013-09-11 16:22:00,95.0,64.0,-100.00,North,5,6.0,12.0,36,-99.99,,,-99.99,,2013-09-11 20:22:00,
2013-09-11 16:52:00,96.0,64.0,-100.00,NNE,15,7.0,12.0,35,-99.99,,,-99.99,,2013-09-11 20:52:00,
2013-09-11 17:22:00,93.0,63.0,-100.00,North,5,7.0,12.0,36,-99.99,,,-99.99,,2013-09-11 21:22:00,
2013-09-11 17:54:00,91.0,65.0,-100.00,WNW,290,9.0,14.0,42,-99.99,,,-99.99,,2013-09-11 21:54:00,
2013-09-11 18:24:00,91.0,66.0,-100.00,North,5,4.0,11.0,43,-99.99,,,-99.99,,2013-09-11 22:24:00,
2013-09-11 18:54:00,92.0,66.0,-100.00,West,280,4.0,9.0,42,-99.99,,,-99.99,,2013-09-11 22:54:00,
2013-09-11 19:22:00,90.0,67.0,-100.00,North,5,2.0,6.0,47,-99.99,,,-99.99,,2013-09-11 23:22:00,
2013-09-11 19:53:00,86.0,67.0,-100.00,North,5,2.0,5.0,53,-99.99,,,-99.99,,2013-09-11 23:53:00,
2013-09-11 20:22:00,83.0,68.0,-100.00,NW,305,8.0,16.0,61,-99.99,,,-99.99,,2013-09-12 00:22:00,
2013-09-11 20:52:00,80.0,69.0,-100.00,NW,315,7.0,9.0,70,-99.99,,,-99.99,,2013-09-12 00:52:00,
2013-09-11 21:42:00,79.0,70.0,-100.00,NW,315,4.0,7.0,74,-99.99,,,-99.99,,2013-09-12 01:42:00,
2013-09-11 21:52:00,78.0,70.0,-100.00,North,350,1.0,6.0,76,-99.99,,,-99.99,,2013-09-12 01:52:00,
2013-09-11 22:22:00,77.0,70.0,-100.00,ENE,60,1.0,4.0,80,-99.99,,,-99.99,,2013-09-12 02:22:00,
2013-09-11 23:22:00,75.0,71.0,-100.00,North,5,1.0,2.0,87,-99.99,,,-99.99,,2013-09-12 03:22:00,
2013-09-11 23:55:00,74.0,71.0,-100.00,NW,325,0.0,2.0,91,-99.99,,,-99.99,,2013-09-12 03:55:00,